This demonstration page uses our WeatherBlox Daily Observations layout. Learn more.

38.88101, -77.10428

Hourly Observations for June 15, 2019

Temp ( °F °C ) Dew Point ( °F °C ) Humidity (%) Winds ( mph kmh ) Pressure ( in mb ) Visibility ( mi km ) Precip ( " mm )
12:52 am 00:52 Partly Cloudy 65 18.3 55 12.8 70 70 SW 3 6 30.14 1021 10 16.0934 0 0
1:52 am 01:52 Partly Cloudy 64 17.8 55 12.8 73 73 S 7 11 30.15 1021 10 16.0934 0 0
2:52 am 02:52 Partly Cloudy 64 17.8 54 12.2 70 70 SSW 9 15 30.13 1020 10 16.0934 0 0
3:52 am 03:52 Mostly Clear 62 16.7 53 11.7 73 73 SSW 5 7 30.13 1020 10 16.0934 0 0
4:52 am 04:52 Mostly Clear 62 16.7 54 12.2 75 75 SSW 7 11 30.12 1020 10 16.0934 0 0
5:52 am 05:52 Partly Cloudy 61 16.1 53 11.7 75 75 SSW 8 13 30.13 1020 10 16.0934 0 0
7:52 am 07:52 Mostly Cloudy 64 17.8 54 12.2 70 70 S 9 15 30.16 1021 10 16.0934 0 0
8:52 am 08:52 Mostly Cloudy 66 18.9 54 12.2 65 65 SSW 9 15 30.16 1022 10 16.0934 0 0
9:52 am 09:52 Mostly Cloudy 69 20.6 55 12.8 61 61 SSW 7 11 30.16 1021 10 16.0934 0 0
10:52 am 10:52 Mostly Cloudy 75 23.9 56 13.3 52 52 SSW 10 17 30.14 1021 10 16.0934 0 0
11:52 am 11:52 Mostly Cloudy 78 25.6 56 13.3 47 47 SSW 12 19 30.13 1020 10 16.0934 0 0
12:52 pm 12:52 Mostly Cloudy 81 27.2 55 12.8 41 41 SSW 15 24 30.11 1020 10 16.0934 0 0
1:52 pm 13:52 Mostly Cloudy 83 28.3 55 12.8 38 38 S 20 31 30.07 1018 10 16.0934 0 0
2:52 pm 14:52 Mostly Cloudy 82 27.8 51 10.6 34 34 SSW 17 28 30.05 1018 10 16.0934 0 0
3:52 pm 15:52 Mostly Cloudy 81 27.2 51 10.6 35 35 S 14 22 30.04 1017 10 16.0934 0 0
4:52 pm 16:52 Mostly Cloudy 82 27.8 52 11.1 35 35 S 17 28 30.03 1017 10 16.0934 0 0
5:52 pm 17:52 Mostly Cloudy 81 27.2 53 11.7 38 38 S 16 26 30.02 1017 10 16.0934 0 0
6:52 pm 18:52 Mostly Cloudy 80 26.7 58 14.4 47 47 S 9 15 30.02 1017 10 16.0934 0 0
7:52 pm 19:52 Mostly Cloudy 78 25.6 56 13.3 47 47 S 15 24 30.01 1016 10 16.0934 0 0
8:52 pm 20:52 Mostly Cloudy 77 25 55 12.8 47 47 S 12 19 30.01 1016 10 16.0934 0 0
9:52 pm 21:52 Mostly Cloudy 75 23.9 55 12.8 50 50 SSW 13 20 30.01 1016 10 16.0934 0 0
10:52 pm 22:52 Mostly Cloudy 74 23.3 55 12.8 52 52 SSW 14 22 30 1016 10 16.0934 0 0
11:52 pm 23:52 Partly Cloudy 73 22.8 56 13.3 55 55 S 13 20 29.98 1015 10 16.0934 0 0

Powered by AerisWeather